Погода в Бадалоне

Испания     41°26′58″N   2°14′43″E
темп.,
°C
ветер,
м/с
пор.,
м/с
влажн.,
%
обл.,
%
осадки,
мм/ч
давл.,
гПа
погр.,
м
6 мая, чт
чт623:00+15всв23810 0.0 1017259
02:00+14св228236 0.0 1017109
05:00+14св018152 0.0 101631
08:00+14зсз1283100 0.0 1016154
11:00+19зюз355725 0.0 1016751
14:00+23ююз68445 0.0 10141405
17:00+23ююз794862 0.0 10121116
20:00+20ююз466191 0.0 1013422
7 мая, пт
пт723:00+18юв12708 0.0 1016150
02:00+16вюв11745 0.0 101672
05:00+16ссз01775 0.0 101520
08:00+16св11725 0.0 1016110
11:00+19юв226117 0.0 1017664
14:00+20юв546016 0.0 1016583
17:00+19вюв557175 0.0 1017663
20:00+17в467199 0.0 1018542
8 мая, сб
сб823:00+16св127176 0.0 1020240
02:00+16с117253 0.0 101934
05:00+15ссв11756 0.0 101817
08:00+16ссв11755 0.0 101891
11:00+20ююв11615 0.0 1017508
14:00+22ююв435817 0.0 1016720
17:00+21ююв345919 0.0 1014623
20:00+20ю2365100 0.0 1014381
9 мая, вс
вс923:00+18юв117698 0.0 1014161
02:00+17всв2278100 0.0 101382
05:00+16св347883 0.0 1011111
08:00+16всв358096 0.0 1011226
11:00+20в5764100 0.0 1010662
14:00+21в5663100 0.1 1008695
17:00+20в45704 0.0 1006562
20:00+19ююз35745 0.0 1007529
10 мая, пн
пн1023:00+18юз238039 0.0 1008161
02:00+17з11823 0.0 100819
05:00+17ссв1174100 0.0 100719
08:00+16з1292100 4.0 1008141
11:00+15ююз4989100 4.5 1010803
14:00+17з356896 7.7 1009601
17:00+19ю455819 0.0 10081126
20:00+20юз585481 0.2 1009951